[[{"header":{"parameterUnit":"m.s-1","parameterCategory":1,"la1":30.2991,"la2":30.254,"lo1":-89.0895,"lo2":-89.0444,"dy":0.0017,"dx":0.0017,"nx":28,"ny":28,"refTime":"2025-01-07T09:00:00:Z","depth":0,"parameterNumber":2,"parameterNumberName":"U-component_of_WINDS"},"data":[0,0,0,0,0,0,0,0,0,0,0,0,0,0,0,0,0,0,0,0,0,0,0,0,0,0,0,0,0,0,0,0,0,0,0,0,0,0,0,0,0,0,0,0,0,0,0,0,0,0,0,0,0,0,0,0,0,0,1.0091,1.0091,0,1.0098,1.0098,1.0098,1.0094,1.0094,1.0093,1.0093,1.01,1.01,1.0101,0,0,0,0,0,0,0,0,0,0,0,0,0,1.0075,1.0076,1.0091,1.0091,1.0091,1.0098,1.0098,1.0098,1.0094,1.0094,1.0093,1.0093,1.01,1.01,1.0101,0,0,0,0,0,0,0,0,0,0,0,0,0,1.0082,1.0076,1.0091,1.009,1.009,1.0098,1.0098,1.0098,1.0094,1.0094,1.0093,1.0093,1.01,1.01,1.0101,1.011,0,0,1.0102,1.0103,0,0,0,0,0,0,0,0,1.0082,1.0083,1.009,1.009,1.009,1.0095,1.0095,1.0102,1.0094,1.0092,1.0093,1.0093,1.0098,1.0099,1.0101,1.011,1.0111,1.0102,1.0103,1.0103,1.0103,0,0,0,0,0,0,0,1.0081,1.0082,1.0094,1.009,1.009,1.0089,1.009,1.0096,1.0097,1.0092,1.0092,1.0093,1.0098,1.01,1.0101,1.0111,1.0102,1.0103,1.0103,1.0104,1.0129,1.013,0,0,0,0,0,0,1.0081,1.0082,1.0094,1.0094,1.0085,1.009,1.0091,1.0093,1.0097,1.0097,1.0093,1.0093,1.01,1.01,1.0101,1.0113,1.0103,1.0104,1.0104,1.0129,1.0129,1.013,0,0,0,0,0,0,1.0081,1.0082,1.0093,1.0088,1.0089,1.0091,1.0094,1.0094,1.0096,1.0098,1.0098,1.0095,1.0099,1.0101,1.0108,1.0113,1.0104,1.0104,1.0129,1.0129,1.013,1.0136,0,0,0,0,0,0,1.008,1.0082,1.0085,1.0088,1.009,1.01,1.0094,1.0094,1.0097,1.0096,1.0099,1.01,1.0099,1.0107,1.0109,1.0114,1.0105,1.0128,1.0129,1.0129,1.0135,1.0136,1.0138,0,0,0,0,0,1.008,1.0086,1.0085,1.0087,1.0094,1.01,1.0101,1.01,1.0097,1.0101,1.0102,1.0099,1.0113,1.0108,1.011,1.0115,1.0128,1.0129,1.0129,1.0135,1.0136,1.0138,0,0,0,0,0,0,1.0083,1.0087,1.0085,1.0093,1.0097,1.0099,1.0103,1.0102,1.0106,1.0105,1.0105,1.0106,1.0114,1.0115,1.011,1.0125,1.012,1.0121,1.0123,1.0125,1.0126,1.0125,1.0105,0,0,0,0,0,1.0085,1.009,1.0093,1.0099,1.0101,1.0102,1.0105,1.0104,1.0108,1.0109,1.0111,1.0114,1.0119,1.0122,1.0126,1.0136,1.0137,1.014,1.0141,1.0142,1.0143,1.0149,1.015,1.0132,1.0132,1.0132,0,0,1.0089,1.0091,1.0094,1.01,1.0103,1.0108,1.0103,1.0109,1.0113,1.011,1.0117,1.0119,1.0122,1.0131,1.0135,1.0132,1.0149,1.0143,1.0144,1.0144,1.015,1.0151,1.0153,1.0133,1.0133,1.0133,0,0,1.0098,1.0101,1.0107,1.0109,1.0113,1.0114,1.0116,1.0119,1.012,1.0128,1.0126,1.0131,1.0139,1.0142,1.0144,1.0157,1.0155,1.0158,1.0164,1.017,1.0171,1.0172,1.0177,1.0178,1.0159,1.0159,1.0159,0,1.0102,1.011,1.011,1.0116,1.0119,1.0117,1.0123,1.0126,1.0131,1.0133,1.0131,1.0142,1.0144,1.0154,1.0157,1.0159,1.0161,1.0157,1.0171,1.0172,1.0173,1.0178,1.0179,1.016,1.0159,1.0159,1.0159,0,1.0115,1.012,1.0125,1.013,1.0134,1.014,1.0141,1.0145,1.0145,1.0146,1.0154,1.0157,1.0163,1.0165,1.0165,1.0175,1.0173,1.0171,1.0166,1.0176,1.0179,1.0181,1.016,1.016,1.016,1.016,0,0,1.0125,1.0132,1.0133,1.0136,1.0141,1.0145,1.0152,1.0157,1.0161,1.0165,1.017,1.0178,1.0176,1.0179,1.0179,1.0184,1.0194,1.0181,1.0182,1.0184,1.0206,1.0208,1.0209,1.0193,1.0194,1.0194,1.0206,0,1.0135,1.0146,1.0147,1.0157,1.0162,1.0161,1.0167,1.0171,1.0173,1.0178,1.018,1.0186,1.0183,1.0185,1.019,1.0192,1.0199,1.0191,1.0199,1.0199,1.0197,1.0211,1.0213,1.0224,1.0207,1.0208,1.0208,0,1.0147,1.0151,1.0162,1.0167,1.017,1.0175,1.018,1.0185,1.019,1.0191,1.0195,1.0195,1.0202,1.0198,1.0208,1.0203,1.0206,1.0208,1.0209,1.0209,1.0203,1.0212,1.0227,1.0229,1.021,1.021,1.021,0,1.0153,1.0162,1.017,1.0173,1.0179,1.0182,1.0185,1.019,1.0193,1.0199,1.0201,1.0207,1.0211,1.0215,1.0217,1.0214,1.0228,1.0223,1.0229,1.0229,1.0231,1.023,1.0247,1.0234,1.0234,1.0234,1.0234,0,1.0163,1.017,1.0173,1.0178,1.0186,1.0187,1.0195,1.0198,1.0202,1.0208,1.0208,1.0213,1.0215,1.0221,1.0222,1.0231,1.0232,1.0234,1.0234,1.0233,1.0233,1.0235,1.0234,1.0234,1.0234,1.0234,1.0234,0,1.0171,1.0174,1.0182,1.0188,1.0189,1.0195,1.02,1.0205,1.0207,1.0214,1.0216,1.022,1.0227,1.0229,1.0238,1.0239,1.0248,1.0248,1.0247,1.0247,1.0252,1.0251,1.0269,1.0272,1.0258,1.0258,1.0258,0,1.0177,1.0182,1.0188,1.0192,1.0195,1.0201,1.0205,1.0208,1.0212,1.0219,1.0223,1.023,1.0235,1.0247,1.025,1.0257,1.0257,1.0263,1.0258,1.0257,1.0257,1.0256,1.0257,1.0263,1.0263,1.0264,1.0264,0,1.0187,1.0189,1.0194,1.0201,1.0206,1.0211,1.0216,1.0219,1.0222,1.0227,1.0234,1.0239,1.0248,1.0255,1.0262,1.0266,1.0265,1.0266,1.0267,1.0266,1.0265,1.0266,1.0249,1.0265,1.0265,1.0265,1.0265,1.0264,1.0194,1.0199,1.0204,1.0211,1.0215,1.022,1.0225,1.0229,1.0235,1.0242,1.0244,1.0252,1.0258,1.0267,1.0271,1.0277,1.0276,1.0278,1.0279,1.0279,1.0279,1.0265,1.0279,1.0279,1.0279,1.0279,1.0279,0,1.0204,1.0208,1.0214,1.0221,1.0227,1.0227,1.0233,1.0237,1.0244,1.025,1.0256,1.0265,1.0272,1.0277,1.0284,1.0288,1.0289,1.029,1.029,1.0291,1.028,1.0278,1.029,1.029,1.029,1.029,1.029,1.029,1.021,1.0218,1.022,1.0231,1.0235,1.0243,1.0246,1.0251,1.0256,1.0265,1.0272,1.0275,1.028,1.0288,1.0295,1.0297,1.0299,1.0301,1.0302,1.0292,1.0291,1.029,1.0288,1.0302,1.0302,1.0312,1.0312,1.0312]},{"header":{"parameterUnit":"m.s-1","parameterCategory":1,"la1":30.2991,"la2":30.254,"lo1":-89.0895,"lo2":-89.0444,"dy":0.0017,"dx":0.0017,"nx":28,"ny":28,"refTime":"2025-01-07T09:00:00:Z","depth":0,"parameterNumber":3,"parameterNumberName":"V-component_of_WINDS"},"data":[0,0,0,0,0,0,0,0,0,0,0,0,0,0,0,0,0,0,0,0,0,0,0,0,0,0,0,0,0,0,0,0,0,0,0,0,0,0,0,0,0,0,0,0,0,0,0,0,0,0,0,0,0,0,0,0,0,0,-3.9551,-3.9551,0,-3.963,-3.9631,-3.9631,-3.9636,-3.9635,-3.9634,-3.9634,-3.971,-3.9712,-3.9715,0,0,0,0,0,0,0,0,0,0,0,0,0,-3.94,-3.9403,-3.955,-3.9551,-3.9552,-3.963,-3.9631,-3.9632,-3.9636,-3.9635,-3.9634,-3.9633,-3.9709,-3.9712,-3.9715,0,0,0,0,0,0,0,0,0,0,0,0,0,-3.9471,-3.9404,-3.955,-3.9564,-3.9566,-3.9629,-3.9631,-3.9632,-3.9637,-3.9635,-3.9634,-3.9633,-3.9708,-3.9712,-3.9716,-3.9769,0,0,-3.9729,-3.9731,0,0,0,0,0,0,0,0,-3.9467,-3.9476,-3.9561,-3.9563,-3.9566,-3.9622,-3.9605,-3.9678,-3.9637,-3.961,-3.9634,-3.9632,-3.9681,-3.9687,-3.9705,-3.9772,-3.9776,-3.9729,-3.9732,-3.9734,-3.9735,0,0,0,0,0,0,0,-3.9462,-3.9473,-3.9582,-3.9562,-3.9565,-3.9565,-3.9574,-3.9619,-3.9652,-3.9612,-3.9613,-3.9622,-3.9682,-3.9701,-3.9707,-3.9777,-3.9729,-3.9733,-3.9736,-3.9737,-3.9894,-3.9895,0,0,0,0,0,0,-3.9455,-3.9469,-3.9579,-3.9584,-3.9512,-3.9569,-3.9579,-3.9605,-3.9651,-3.9657,-3.9623,-3.9622,-3.9694,-3.9702,-3.971,-3.9777,-3.9734,-3.9738,-3.974,-3.9892,-3.9894,-3.9896,0,0,0,0,0,0,-3.9451,-3.9465,-3.9576,-3.9527,-3.9541,-3.9573,-3.9603,-3.9607,-3.9626,-3.966,-3.9665,-3.9637,-3.9694,-3.9704,-3.9755,-3.9779,-3.974,-3.9744,-3.989,-3.9893,-3.9895,-3.991,0,0,0,0,0,0,-3.9447,-3.9463,-3.9485,-3.9527,-3.9543,-3.9621,-3.9604,-3.961,-3.9634,-3.9634,-3.9674,-3.9679,-3.9693,-3.9749,-3.9759,-3.9784,-3.9747,-3.9888,-3.9891,-3.9894,-3.9907,-3.9912,-3.9917,0,0,0,0,0,-3.9442,-3.9484,-3.9486,-3.9499,-3.9571,-3.9623,-3.9632,-3.9648,-3.9636,-3.9658,-3.9679,-3.9678,-3.9775,-3.9754,-3.9766,-3.9793,-3.9887,-3.9891,-3.9894,-3.9905,-3.9911,-3.9917,0,0,0,0,0,0,-3.9441,-3.949,-3.9492,-3.9549,-3.9582,-3.9623,-3.9651,-3.9654,-3.9689,-3.9687,-3.9704,-3.9714,-3.9765,-3.9784,-3.976,-3.9847,-3.9829,-3.9835,-3.9834,-3.984,-3.9844,-3.9839,-3.975,0,0,0,0,0,-3.9448,-3.9487,-3.9527,-3.9573,-3.959,-3.9618,-3.9641,-3.9651,-3.9685,-3.9698,-3.9723,-3.9755,-3.9793,-3.9817,-3.9853,-3.991,-3.9919,-3.9934,-3.9939,-3.9943,-3.9948,-3.9981,-3.9989,-3.9908,-3.9908,-3.9908,0,0,-3.9461,-3.9493,-3.9516,-3.9574,-3.9601,-3.9641,-3.9629,-3.9671,-3.97,-3.9704,-3.9755,-3.9775,-3.9811,-3.9866,-3.9891,-3.9883,-3.9972,-3.9947,-3.995,-3.9953,-3.9985,-3.9993,-4.0,-3.991,-3.991,-3.9909,0,0,-3.9508,-3.9535,-3.9578,-3.9606,-3.9647,-3.9666,-3.9676,-3.9717,-3.9731,-3.9783,-3.9788,-3.9822,-3.9886,-3.9913,-3.9934,-3.9993,-3.9993,-4.0004,-4.0029,-4.0061,-4.0067,-4.0073,-4.0095,-4.0103,-4.0009,-4.0009,-4.0009,0,-3.9519,-3.9581,-3.9599,-3.9643,-3.9668,-3.9676,-3.9719,-3.9744,-3.9795,-3.9812,-3.9802,-3.9885,-3.9909,-3.9972,-3.9986,-4.0003,-4.0016,-4.0,-4.0065,-4.0071,-4.0077,-4.0098,-4.0106,-4.001,-4.001,-4.001,-4.001,0,-3.9594,-3.9636,-3.9666,-3.9718,-3.9746,-3.9789,-3.9814,-3.9841,-3.9849,-3.9868,-3.9921,-3.9952,-3.9996,-4.0011,-4.0017,-4.0074,-4.0068,-4.0062,-4.0044,-4.0085,-4.0106,-4.0114,-4.0012,-4.0011,-4.0011,-4.0011,0,0,-3.964,-3.9704,-3.9715,-3.9739,-3.9786,-3.9819,-3.9862,-3.9907,-3.9931,-3.9965,-4.0002,-4.0057,-4.0052,-4.0077,-4.0087,-4.0115,-4.0162,-4.0105,-4.0106,-4.0116,-4.0228,-4.0234,-4.0243,-4.0162,-4.0164,-4.0165,-4.0225,0,-3.9693,-3.9773,-3.9792,-3.986,-3.9901,-3.9909,-3.9947,-3.9979,-3.9999,-4.0035,-4.0055,-4.0095,-4.0084,-4.01,-4.0128,-4.015,-4.0185,-4.0146,-4.0197,-4.0198,-4.0189,-4.0253,-4.0259,-4.0315,-4.0233,-4.0235,-4.0236,0,-3.9765,-3.9804,-3.9877,-3.9922,-3.9939,-3.9973,-4.0017,-4.0051,-4.0088,-4.0101,-4.013,-4.0138,-4.0183,-4.0162,-4.0225,-4.0199,-4.022,-4.0235,-4.0237,-4.0243,-4.022,-4.0263,-4.0333,-4.0341,-4.0248,-4.0247,-4.0246,0,-3.9794,-3.9865,-3.9919,-3.9939,-3.9991,-4.0015,-4.0038,-4.0074,-4.01,-4.0138,-4.0155,-4.0197,-4.022,-4.0251,-4.027,-4.0253,-4.0332,-4.0312,-4.0343,-4.0343,-4.036,-4.0359,-4.0436,-4.0372,-4.0371,-4.0371,-4.0371,0,-3.9852,-3.9896,-3.9933,-3.9966,-4.0017,-4.0038,-4.0087,-4.0109,-4.0141,-4.0178,-4.0186,-4.022,-4.0243,-4.028,-4.0294,-4.0345,-4.0355,-4.0366,-4.0369,-4.0366,-4.0365,-4.0381,-4.0378,-4.0374,-4.0373,-4.0373,-4.0372,0,-3.9893,-3.9919,-3.9979,-4.0024,-4.0037,-4.0072,-4.0111,-4.0143,-4.0163,-4.021,-4.0222,-4.0253,-4.0297,-4.0319,-4.0373,-4.0383,-4.0441,-4.0441,-4.0429,-4.0431,-4.0461,-4.0459,-4.0552,-4.0566,-4.0491,-4.0492,-4.0493,0,-3.9929,-3.9964,-4.0014,-4.0041,-4.0065,-4.0107,-4.0135,-4.0157,-4.0186,-4.0232,-4.0259,-4.0304,-4.0342,-4.0412,-4.0439,-4.048,-4.0483,-4.0513,-4.0489,-4.0485,-4.0485,-4.0484,-4.0488,-4.0517,-4.0518,-4.0518,-4.0519,0,-3.999,-4.0002,-4.0043,-4.009,-4.0124,-4.0161,-4.0197,-4.0217,-4.0245,-4.0277,-4.0324,-4.0353,-4.0411,-4.0456,-4.05,-4.0522,-4.0525,-4.0526,-4.0536,-4.0533,-4.0526,-4.0532,-4.0442,-4.0524,-4.0524,-4.0523,-4.0523,-4.0523,-4.0031,-4.0063,-4.0105,-4.0151,-4.0181,-4.0216,-4.0249,-4.0274,-4.0315,-4.0365,-4.0375,-4.0425,-4.0462,-4.0522,-4.0546,-4.0584,-4.0578,-4.0591,-4.0595,-4.0598,-4.0601,-4.0519,-4.0592,-4.0592,-4.0592,-4.0592,-4.0592,0,-4.0094,-4.0121,-4.0164,-4.0216,-4.0253,-4.0255,-4.0296,-4.0326,-4.037,-4.0406,-4.0444,-4.0498,-4.0543,-4.0573,-4.0618,-4.0643,-4.0646,-4.0655,-4.0653,-4.0659,-4.0603,-4.0591,-4.0652,-4.0652,-4.0652,-4.0652,-4.0652,-4.0652,-4.0131,-4.0187,-4.0204,-4.0276,-4.0302,-4.0354,-4.0377,-4.0409,-4.0438,-4.0499,-4.0537,-4.0558,-4.0592,-4.0639,-4.068,-4.0688,-4.0704,-4.0713,-4.0721,-4.0669,-4.0662,-4.0656,-4.0645,-4.0716,-4.0716,-4.0774,-4.0774,-4.0774]}]]